Location: *
(46.3500°N, 10.9000°E)
Time: 20:32:29
(UTC+00:00)

Vanguard 2 Rocket - Pass Details

Date: 25 April 2021
Orbit: 553 x 3326 km, 32.9° (Epoch: 06 May)

Event Time Altitude Azimuth Distance (km) Brightness Sun altitude
Rises 18:36:25 0° 276° (W) 7,314 13.3 -3.8°
Reaches altitude 10° 18:44:47 10° 259° (WSW) 6,120 12.0 -5.2°
Maximum altitude 18:53:22 15° 231° (SW) 5,276 11.1 -6.5°
Drops below altitude 10° 19:00:51 10° 202° (SSW) 5,165 10.7 -7.6°
Sets 19:06:51 0° 182° (S) 5,614 10.7 -8.5°
